Location: Unspecified
(0.0000°N, 0.0000°E)
Time: 14:39:31
(UTC+00:00)

Transit 2A - Visible Passes

Search period start: 02 February 2023 00:00
Search period end: 12 February 2023 00:00
Orbit: 594 x 963 km, 66.7° (Epoch: 02 February)

Date Brightness Start Highest point End Pass type
(mag) Time Alt. Az. Time Alt. Az. Time Alt. Az.
02 Feb 6.6 04:17:12 54° SW 04:17:12 54° SW 04:22:20 10° S visible
03 Feb 7.5 03:44:37 36° SSE 03:44:37 36° SSE 03:48:01 10° SSE visible
04 Feb 8.6 03:11:56 18° SE 03:11:56 18° SE 03:13:23 10° SSE visible
04 Feb 8.4 04:52:28 11° SW 04:52:28 11° SW 04:52:56 10° SW visible
05 Feb 8.5 04:19:42 12° SSW 04:19:42 12° SSW 04:20:22 10° SSW visible
